Regional Weather Roundup
Issued by NWS

Home | Current Version | Previous Version | Text Only | Print | Product List | Glossary Off
Versions: 1 2 3 4 5 6 7 8 9 10 11 12 13 14 15 16 17 18 19 20 21 22 23 24 25 26 27 28 29 30 31 32 33 34 35 36 37 38 39 40 41 42 43 44 45 46 47 48 49 50

000
ASUS43 KMKX 221300
RWRWI

WISCONSIN REGIONAL WEATHER ROUNDUP
NATIONAL WEATHER SERVICE MILWAUKEE/SULLIVAN WI
800 AM CDT SUN APR 22 2018

NOTE: "FAIR" INDICATES FEW OR NO CLOUDS BELOW 12,000 FEET WITH NO
SIGNIFICANT WEATHER AND/OR OBSTRUCTIONS TO VISIBILITY.

WIZ001-002-006>008-014>016-023>028-221400-
NORTHWEST WISCONSIN

CITY           SKY/WX    TMP DP  RH WIND       PRES   REMARKS
SUPERIOR ARPT  FAIR      32  26  77 CALM      30.39S
ASHLAND        FAIR      38  24  57 SW3       30.38R
HAYWARD        FAIR      33  23  66 CALM      30.39R
SIREN          FAIR      31  24  75 CALM      30.38R
CUMBERLAND     FAIR      28  21  74 CALM      30.38R
RICE LAKE      FAIR      31  27  84 CALM      30.39R
CHETEK         FAIR      31  26  84 CALM      30.39R
LADYSMITH      FAIR      39  29  68 CALM      30.40R
EAU CLAIRE     FAIR      37  31  78 CALM      30.38R
MENOMONIE      FAIR      36  31  83 CALM      30.39R
NEW RICHMOND   FAIR      33  30  88 CALM      30.38R
OSCEOLA        FAIR      32  29  88 CALM      30.41R
$$

WIZ003>005-009-010-017-018-221400-
NORTH CENTRAL WISCONSIN

CITY           SKY/WX    TMP DP  RH WIND       PRES   REMARKS
MANITOWISH WTR NOT AVBL
ARBOR VITAE    FAIR      29  22  74 CALM      30.37S
WOODRUFF       FAIR      29  22  74 CALM      30.37S
RHINELANDER    FAIR      34  27  75 CALM      30.38S
EAGLE RIVER    FAIR      29  20  69 CALM      30.37S
LAND O LAKES   FAIR      32  19  58 CALM      30.39S
PHILLIPS       FAIR      32  26  78 CALM      30.37S
TOMAHAWK       FAIR      28  24  84 CALM      30.39R
MEDFORD        FAIR      33  28  80 CALM      30.37R
MERRILL          N/A     32  28  84 CALM      30.39S
$$

WIZ029-030-035-036-043>047-221400-
CENTRAL WISCONSIN

CITY           SKY/WX    TMP DP  RH WIND       PRES   REMARKS
WAUSAU         FAIR      35  30  82 CALM      30.37S
MOSINEE        MOSUNNY   37  30  75 CALM      30.39R
MARSHFIELD     FAIR      41  30  65 CALM      30.37R
STEVENS POINT  FAIR      29  26  88 CALM      30.39S
WAUPACA        FAIR      36  30  79 CALM      30.41R
WAUTOMA        FAIR      36  28  73 CALM      30.41R
WISC RAPIDS    FAIR      39  28  64 CALM      30.40R
CAMP DOUGLAS   NOT AVBL
$$

WIZ011>013-019>022-031-037>040-048>050-221400-
NORTHEAST WISCONSIN

CITY           SKY/WX    TMP DP  RH WIND       PRES   REMARKS
ANTIGO         FAIR      32  29  89 CALM      30.39S
SHAWANO        FAIR      34  29  82 CALM      30.40S
OCONTO         FAIR      32  27  82 CALM      30.41R
STURGEON BAY   FAIR      45  23  42 SW5       30.42R
GREEN BAY      FAIR      39  32  76 CALM      30.41R
MANITOWOC      FAIR      38  29  70 CALM      30.41R
APPLETON       MOSUNNY   41  30  65 CALM      30.38R
CLINTONVILLE   FAIR      31  26  80 NE3       30.40S
OSHKOSH        FAIR      38  35  89 S3        30.40R
$$

WIZ032>034-041-042-053>061-221400-
SOUTHWEST WISCONSIN

CITY           SKY/WX    TMP DP  RH WIND       PRES   REMARKS
LA CROSSE      FAIR      42  34  73 N3        30.37S
SPARTA         FAIR      32  29  89 CALM      30.39S
VIROQUA        FAIR      41  34  76 E6        30.36S
BOSCOBEL       FAIR      42  35  76 NE3       30.38R
PRAIRIE DU CHI FAIR      41  35  77 CALM      30.37R
PLATTEVILLE    PTSUNNY   44  30  58 E8        30.36R
$$

WIZ056-057-062-063-064-067-068-221400-
SOUTH CENTRAL WISCONSIN

CITY           SKY/WX    TMP DP  RH WIND       PRES   REMARKS
REEDSBURG      FAIR      36  33  89 CALM      30.38S
BARABOO/DELLS  FAIR      35  31  85 CALM      30.39R
LONE ROCK      NOT AVBL
MINERAL POINT  FAIR      45  27  49 E8        30.36R
MADISON        PTSUNNY   40  35  83 N3        30.39R
MIDDLETON      FAIR      39  36  89 CALM      30.38S
WATERTOWN      FAIR      36  32  85 CALM      30.39R
MONROE         FAIR      41  23  48 NE6       30.36R
JANESVILLE     PTSUNNY   45  28  53 VRB5      30.37S
$$

WIZ051-052-058>065-066-070>072-221400-
SOUTHEAST WISCONSIN

CITY           SKY/WX    TMP DP  RH WIND       PRES   REMARKS
MILWAUKEE      PTSUNNY   45  26  47 CALM      30.40R
WAUKESHA       SUNNY     37  25  60 CALM      30.40R
MILWAUKEE/TIMM SUNNY     37  23  56 CALM      30.41R
RACINE         FAIR      46  22  38 NE5       30.41R
BURLINGTON     FAIR      40  28  60 CALM      30.39S
KENOSHA        PTSUNNY   46  23  40 E6        30.39S
FOND DU LAC    FAIR      39  32  76 CALM      30.41R
SHEBOYGAN      FAIR      41  33  73 CALM      30.40R
WEST BEND      FAIR      36  32  87 CALM      30.40R
JUNEAU         FAIR      39  30  69 CALM      30.41R
$$

LSZ147-162-221400-
LAKE SUPERIOR

STATION/POSITION TIME  TEMP    WIND        PRES    WAVE
                       AIR SEA DIR/SP/G            HT/PER
                 (UTC) (F)     (DEG/KT/KT) (MB)    (FT/S)
DEVILS ISLAND    1200   36     220/  3/  3 1029.3R
SAXON HARBOR     1240   31        CALM     1027.8S
$$

LMZ867-665-643>646-221400-
LAKE MICHIGAN

STATION/POSITION TIME  TEMP    WIND        PRES    WAVE
                       AIR SEA DIR/SP/G            HT/PER
                 (UTC) (F)     (DEG/KT/KT) (MB)    (FT/S)
NORTHPORT PIER   1240   38                 1029.8R
KEWAUNEE LAKESHO 1224   34     290/  3/  5 1028.7
SHEBOYGAN LAKESH 1200   38      30/  5/  5 1029.6R
PORT WASHINGTON  1240   46     130/  2/  2 1030.5R
MILWAUKEE LAKESH 1230   42      20/  4/  4   N/A
KENOSHA   LAKESH 1200   40                 1029.1
$$

TC  - TEMPERATURE IN CELSIUS
VSB - VISIBILITY IN STATUTE MILES
WCI - WIND CHILL INDEX
HX  - HEAT INDEX





USA.gov is the U.S. government's official web portal to all federal, state and local government web resources and services.